Theta_e
304 302 302 301 302 302 302 302 303 303 303 303 303 303 303 303 304 304 304 304 304 303 303 302 301 300 299 299 299 298 298 299 299 298 297 297 296 296 296 296 296 296
304 304 302 301 301 301 301 302 302 302 303 303 303 303 303 303 303 303 303 303 303 303 303 303 302 301 300 299 298 298 298 298 298 298 297 297 296 296 296 296 296 295
304 304 303 302 301 300 300 300 301 301 302 302 302 302 302 302 302 302 302 302 302 302 302 302 302 302 301 300 299 298 298 298 298 298 298 297 297 296 296 295 295 295
303 303 303 302 302 301 300 299 299 300 301 301 301 301 301 301 301 302 302 302 302 302 302 302 302 302 302 302 301 300 299 299 298 298 298 298 297 297 296 295 295 295
303 303 302 302 302 301 301 300 299 299 300 300 300 300 300 300 301 301 301 302 302 302 302 301 301 301 301 302 301 301 301 300 300 299 298 298 298 297 296 296 295 295
302 302 302 302 302 301 301 301 300 299 300 300 301 300 300 300 300 300 300 301 301 301 301 301 301 301 301 301 301 301 301 301 301 301 300 299 299 298 297 296 295 295
302 302 302 302 302 301 301 301 301 300 300 301 301 301 301 300 300 300 300 300 300 300 300 300 300 300 300 300 300 301 301 301 301 301 301 301 300 299 298 297 296 295
299 301 301 302 302 302 301 302 301 301 300 300 301 301 300 300 300 299 299 299 299 299 299 300 299 299 299 299 300 300 300 301 301 301 301 301 301 300 300 299 298 296
298 298 299 300 301 301 301 301 301 301 300 300 300 300 300 300 299 298 298 298 298 298 298 299 299 298 299 299 299 299 299 300 300 300 301 301 301 301 301 300 299 298
297 297 297 298 299 300 300 300 301 301 300 300 299 299 298 299 299 298 298 297 297 297 297 297 298 298 298 298 298 298 298 298 299 299 300 300 300 301 301 301 300 300
295 296 297 296 297 297 298 299 299 300 300 300 299 299 298 297 297 297 297 297 297 297 296 296 296 296 297 297 297 297 297 297 298 298 299 299 299 300 300 300 300 300
293 294 295 295 296 296 296 296 297 298 298 299 299 299 298 298 297 296 296 296 296 296 296 295 295 295 295 295 295 296 296 296 296 297 297 298 298 299 299 299 299 299
292 292 292 293 294 294 295 295 295 296 296 297 298 298 298 298 298 297 296 295 295 295 295 295 294 294 294 294 294 294 295 295 295 296 296 297 297 298 298 298 298 298
289 290 290 290 291 292 293 294 294 295 295 295 296 296 297 297 298 298 297 296 295 295 295 295 294 294 293 293 293 293 293 294 294 294 295 295 296 297 297 297 298 298
288 288 288 289 289 289 290 291 292 293 294 294 294 295 295 295 296 297 297 297 297 296 295 294 294 294 293 292 292 292 292 293 293 293 294 294 295 295 296 297 297 297
287 287 287 287 288 288 288 289 289 290 291 291 292 293 293 294 294 295 296 296 297 297 296 295 294 294 293 292 292 291 292 292 292 292 292 293 293 294 295 295 296 296
286 286 286 286 286 287 287 287 287 288 288 289 289 290 291 292 292 293 294 294 295 296 296 296 296 294 292 291 291 291 291 291 291 291 291 292 292 292 293 294 294 295
286 286 286 286 286 286 286 286 286 286 287 287 287 288 288 289 290 291 291 292 293 294 294 295 296 296 294 292 291 290 290 290 290 291 291 291 291 291 292 292 293 293
286 286 286 286 286 286 286 286 286 286 286 286 286 286 287 287 288 288 289 289 290 291 292 293 294 295 295 294 292 291 290 290 290 290 290 290 291 291 291 291 292 292
286 286 286 286 286 286 286 286 286 286 286 286 286 286 286 286 286 286 287 287 288 288 289 291 292 292 293 294 294 292 290 289 289 289 289 290 290 290 290 290 291 291
286 286 286 286 286 286 286 286 286 285 285 285 285 285 285 285 286 286 286 286 286 286 287 288 290 290 291 292 293 293 291 289 289 289 289 289 289 290 290 290 290 290
285 285 285 285 285 285 285 285 285 285 285 285 285 285 285 285 285 285 285 285 286 286 286 286 287 288 289 290 291 293 292 290 289 289 289 289 289 289 289 289 289 289
285 285 285 285 285 285 285 285 285 285 285 285 285 285 285 285 285 285 285 285 285 285 285 286 286 287 287 288 289 291 292 291 289 288 288 289 289 288 289 289 289 289
284 284 284 284 285 285 285 285 285 285 285 285 285 285 285 285 285 285 285 285 285 285 285 285 286 286 286 286 287 288 290 292 291 289 288 289 289 288 288 288 288 288
284 284 284 284 284 284 284 284 284 284 285 285 284 285 285 285 285 285 285 285 285 285 285 285 285 285 285 285 286 286 287 290 291 290 288 288 288 288 288 287 288 288
283 283 283 283 283 283 283 283 284 284 284 284 284 284 284 285 285 285 285 286 285 285 284 284 284 285 285 285 285 285 286 287 289 291 290 289 288 288 288 287 287 287
Wind_Speed
13 15 17 20 23 25 26 26 26 27 28 29 29 29 29 28 27 27 27 28 32 36 40 45 50 52 54 54 54 53 53 52 51 50 50 51 51 52 52 51 50 49
14 15 16 18 21 23 24 25 25 26 26 27 28 28 28 28 28 28 27 27 29 30 33 37 43 47 51 53 53 53 54 54 53 52 51 51 51 52 52 52 51 51
15 14 15 16 18 20 21 23 24 24 25 26 27 27 28 28 28 28 28 28 29 29 30 33 36 40 44 49 52 53 54 54 54 53 52 52 52 53 53 53 53 52
20 16 14 15 16 18 19 20 21 22 24 25 26 27 28 28 28 28 28 28 29 30 31 32 34 35 38 42 46 50 53 54 54 54 54 54 54 54 54 53 54 54
23 21 19 17 15 16 17 17 17 19 21 23 24 25 27 27 28 29 29 29 29 30 31 32 34 35 36 39 42 45 49 51 53 54 54 55 55 55 55 55 55 55
23 23 22 21 19 17 17 16 16 16 18 20 21 23 24 24 26 28 29 29 30 30 31 32 33 35 36 38 40 43 45 47 48 50 52 55 56 56 56 55 55 56
22 22 22 22 21 21 20 19 18 17 17 18 20 21 21 22 24 26 27 28 29 30 31 32 33 35 36 37 40 42 44 45 46 47 49 51 54 55 56 56 56 56
22 21 21 22 22 22 22 22 21 20 18 18 19 20 20 21 22 24 25 26 28 29 30 31 32 34 36 37 40 42 43 45 46 47 48 49 51 53 54 56 56 57
23 22 22 21 22 22 23 23 23 23 22 20 20 20 20 21 21 22 23 24 26 27 28 29 31 33 35 37 39 42 44 45 45 46 47 48 49 50 51 52 55 57
21 22 22 22 21 22 22 23 24 24 24 24 23 22 21 21 21 21 22 23 24 25 26 27 29 31 33 35 37 40 43 45 46 46 47 48 49 50 50 50 52 54
19 19 21 21 21 21 22 22 23 24 25 25 25 24 23 22 22 22 23 23 24 24 24 25 27 29 31 33 35 37 40 42 45 47 48 49 50 50 50 50 51 53
21 20 20 21 21 22 22 22 22 23 24 24 25 25 25 24 24 23 24 24 24 24 23 24 25 27 29 32 34 36 38 40 42 45 48 49 51 51 51 52 52 53
23 23 22 21 21 21 21 21 21 21 22 24 25 25 26 26 25 25 25 25 25 25 25 25 25 26 29 31 33 35 37 39 41 44 46 47 49 50 51 52 52 52
25 24 23 23 22 21 21 21 21 21 21 22 23 25 26 26 26 26 26 26 26 26 26 26 26 27 29 30 32 34 35 38 40 42 45 46 47 48 50 51 51 52
27 26 25 24 24 23 23 23 22 22 22 22 22 23 24 25 26 26 26 27 27 27 27 27 28 29 29 29 31 32 33 35 37 40 44 46 48 48 49 50 51 52
28 27 26 25 25 25 25 24 24 24 24 23 23 23 23 24 24 25 25 26 27 27 28 28 29 29 29 29 30 31 31 33 35 38 41 45 48 49 50 50 50 51
31 30 29 28 26 26 25 25 25 25 25 25 25 25 25 25 25 25 25 25 25 26 27 29 30 30 29 29 29 29 30 32 34 36 39 43 46 49 50 50 50 50
30 32 32 32 31 29 28 27 26 26 25 25 26 26 27 27 28 28 28 27 27 26 26 27 28 29 29 29 29 29 29 30 33 35 38 41 44 47 50 51 50 50
28 29 31 33 33 33 33 32 31 30 28 27 27 27 27 28 29 30 30 30 30 30 29 29 28 28 28 29 29 29 29 29 32 35 38 41 43 45 48 50 50 51
30 30 30 31 32 33 34 34 34 33 32 31 30 29 29 28 29 30 31 32 32 33 33 33 32 30 29 29 28 28 29 29 31 33 37 40 42 44 45 47 49 51
32 33 33 32 32 33 33 34 35 35 35 34 34 33 33 32 31 31 31 32 33 34 35 36 35 33 32 31 29 28 28 28 30 33 36 39 42 44 45 46 47 49
33 34 34 35 35 34 34 35 35 36 36 36 36 36 36 36 35 35 34 34 34 34 36 37 37 35 34 34 33 30 28 28 30 33 36 39 42 43 45 46 46 47
35 35 35 36 37 37 36 36 37 37 37 38 38 39 39 39 39 38 38 37 37 37 37 38 38 37 36 36 35 34 31 29 31 33 36 39 41 42 44 45 45 46
38 37 37 38 38 38 38 38 39 39 39 40 40 41 42 42 42 42 42 41 40 39 39 39 40 39 37 37 37 36 34 33 32 33 36 39 40 41 42 44 44 44
42 41 41 40 40 40 40 40 41 41 41 42 42 43 45 45 45 46 46 45 44 43 42 41 42 41 39 38 38 37 36 35 34 34 37 40 41 41 42 43 44 44
46 46 45 45 44 44 43 43 43 44 44 44 44 45 46 46 47 48 49 49 48 46 45 44 44 43 40 39 39 39 38 37 36 36 38 39 40 40 42 42 43 45
Wind_Direction
304 295 289 284 282 282 281 282 284 284 284 282 281 280 281 280 278 276 274 270 266 261 257 253 250 248 246 245 244 244 244 244 243 242 241 241 242 242 241 242 242 242
319 304 295 288 284 283 283 284 285 286 286 284 283 282 281 279 278 277 276 274 270 267 263 259 255 252 249 247 246 246 245 245 245 244 243 242 242 242 242 242 242 242
344 319 301 292 288 285 284 283 284 284 285 285 284 284 283 282 280 279 277 275 272 269 266 263 260 257 253 251 248 247 247 247 247 246 245 244 244 243 243 242 242 242
4 350 328 308 296 288 283 281 282 283 284 284 284 285 284 283 282 280 278 277 274 271 268 265 263 260 258 255 252 251 249 248 248 248 247 246 245 244 243 242 242 242
10 6 357 343 325 308 296 289 285 285 284 285 285 285 285 284 283 281 279 278 276 274 271 268 266 263 260 257 255 253 252 251 250 249 248 247 246 245 243 242 242 242
9 7 5 1 352 340 326 313 303 296 291 288 285 284 283 282 282 281 281 279 278 276 273 271 269 267 264 261 258 256 255 254 253 252 250 249 248 246 245 243 243 243
7 5 3 2 360 356 350 341 328 313 300 289 283 280 278 276 277 277 277 278 277 276 274 273 271 269 267 265 262 260 258 256 255 254 253 252 251 249 247 245 244 244
4 2 359 357 357 357 355 351 345 335 320 302 290 282 277 273 272 272 272 273 272 272 272 272 271 270 268 266 264 263 261 259 257 255 254 253 252 251 250 247 245 245
355 354 353 350 350 351 352 350 348 345 339 327 314 301 289 280 274 271 270 269 268 268 268 268 269 269 268 267 265 264 262 261 260 259 257 255 253 253 252 250 248 246
348 346 345 345 345 346 348 347 345 344 343 340 333 323 310 298 288 279 273 269 267 266 266 267 267 267 267 267 266 266 265 263 262 261 259 258 256 255 253 252 250 248
349 345 342 343 344 344 343 342 342 341 341 341 340 336 329 318 305 295 286 280 275 271 269 268 268 268 267 266 266 266 265 265 264 263 262 260 259 258 256 254 252 251
348 348 345 343 342 342 341 339 337 336 336 337 338 339 338 332 323 312 302 295 290 286 280 275 272 270 269 268 267 266 266 265 264 263 263 263 262 261 259 257 255 254
345 346 346 344 342 339 337 334 332 330 331 331 332 333 334 335 333 327 318 309 301 296 291 287 282 277 273 271 269 268 267 266 264 263 263 263 263 263 262 260 259 257
344 343 342 342 341 338 334 330 328 326 326 326 326 327 328 330 331 331 329 323 315 307 299 294 289 284 280 277 274 271 269 267 265 264 263 262 262 263 262 261 260 259
340 340 340 338 337 336 334 331 328 326 324 321 320 320 322 323 324 325 327 327 325 320 312 302 294 288 285 282 279 277 274 272 269 266 265 263 263 262 261 260 259 259
335 336 337 337 335 334 333 332 331 328 326 323 320 317 317 317 318 319 321 323 324 324 322 315 306 297 291 286 282 280 278 276 274 270 268 266 265 263 262 260 259 259
331 332 333 334 334 333 331 331 330 329 328 326 324 321 318 316 316 316 316 317 318 319 320 319 316 311 302 292 286 281 278 275 274 272 270 269 267 265 264 262 261 260
323 324 326 328 329 330 329 328 328 327 327 326 324 323 322 319 319 317 316 316 314 313 313 314 315 316 312 302 292 284 279 275 272 271 269 268 267 266 264 263 262 262
316 316 318 320 322 323 323 324 324 324 324 325 324 323 322 321 320 319 318 317 315 312 311 309 309 313 315 311 300 290 282 276 273 270 268 267 266 265 264 264 263 262
311 312 313 314 315 316 317 318 319 320 321 322 322 321 321 320 319 318 317 317 316 314 312 309 307 310 313 312 307 297 286 278 273 270 268 266 265 264 264 263 261 261
307 308 309 310 310 311 312 312 313 314 316 318 318 319 319 318 318 317 315 314 314 313 312 309 307 308 309 310 309 303 291 279 273 270 267 266 265 264 263 262 260 259
302 303 304 305 305 306 306 307 308 309 310 312 313 313 314 315 315 315 313 312 311 311 310 308 306 307 307 307 307 306 296 282 273 270 268 265 264 263 263 262 260 259
299 299 299 299 300 301 301 302 302 303 305 307 308 308 309 310 311 311 311 310 310 308 307 306 305 305 306 304 304 305 301 289 277 271 269 266 264 264 263 263 261 260
298 297 295 295 294 295 296 296 297 298 299 301 303 304 304 306 306 307 307 307 308 307 306 304 302 302 304 303 301 302 301 295 284 274 270 269 266 264 263 263 262 261
298 296 294 293 292 291 291 291 292 293 294 295 297 298 299 301 302 303 303 304 305 306 305 303 300 299 300 301 301 300 298 296 291 279 271 269 267 265 263 263 263 262
297 296 294 293 292 291 289 288 288 289 289 290 291 292 294 295 297 298 299 300 301 303 303 302 300 298 297 297 298 298 296 294 291 285 278 272 268 267 264 261 261 261